Total_Precipitation_Accumulation
0.80 0.74 0.78 0.49 0.37 0.42 0.44 0.58 0.73 1.02 1.35 1.47 2.37 1.76 1.72 1.48 1.46 1.85 1.68 1.80 1.62 1.16 0.86 1.34 1.37 1.11 0.74 0.92 1.16 1.08 1.22 1.75 1.15 0.40 0.42 0.83 1.27 1.45 0.90 0.71 0.58 0.42 0.81
1.42 1.58 1.18 1.13 1.02 0.77 0.82 0.70 0.89 1.14 1.15 1.24 1.57 1.87 1.84 1.43 1.95 1.77 1.53 1.48 1.42 1.10 1.13 1.84 1.04 1.45 1.32 0.94 1.07 1.13 1.30 1.86 1.75 1.00 0.59 0.36 0.95 1.17 0.99 1.03 0.55 0.53 0.61
2.18 2.21 1.86 1.53 1.25 1.29 1.16 1.10 0.91 0.97 1.23 1.40 1.61 1.80 1.63 1.44 1.74 1.89 1.94 1.61 1.24 1.08 1.07 1.29 1.37 2.00 1.86 1.78 1.43 1.52 1.32 1.56 1.80 1.36 0.84 0.45 0.79 1.30 1.78 1.30 1.12 0.94 0.94
2.77 2.73 2.19 1.74 1.49 1.34 1.57 1.98 2.21 1.74 2.09 1.98 1.67 1.55 1.41 1.46 1.37 1.40 1.66 1.88 1.29 0.90 1.47 1.57 1.55 1.66 1.78 2.13 1.86 2.00 2.13 1.85 2.15 1.26 0.72 0.57 0.69 1.00 1.84 1.65 1.86 1.68 1.34
2.21 2.55 2.97 2.97 2.40 2.39 2.34 2.93 3.62 3.14 3.77 4.31 2.87 1.78 1.51 1.51 1.26 1.36 1.29 1.39 1.46 1.36 1.48 1.86 1.71 2.00 2.22 1.95 1.97 1.67 2.05 2.12 1.63 1.17 0.84 0.68 0.96 1.61 1.83 2.02 1.94 1.48 1.62
2.58 2.38 2.55 3.34 3.32 2.77 2.74 2.81 3.16 3.20 3.37 3.49 2.18 1.87 2.04 1.99 2.08 1.54 1.40 1.33 1.63 1.61 1.54 1.65 1.48 1.34 1.15 1.25 1.21 1.16 1.61 1.82 1.61 1.65 1.25 1.02 1.28 1.52 1.82 2.22 2.67 2.74 2.15
3.78 2.75 2.45 2.90 2.55 2.81 3.30 3.24 2.40 2.31 2.36 1.98 1.89 1.86 1.80 2.15 1.95 1.58 1.71 1.56 1.56 1.58 1.60 1.71 1.40 1.01 1.34 1.07 1.46 1.62 1.27 1.13 1.03 1.52 0.94 0.88 1.03 1.63 1.81 1.67 1.88 2.38 1.94
3.43 3.57 3.48 3.41 3.74 3.59 2.86 2.10 1.87 1.87 1.92 2.12 1.69 1.45 2.29 2.03 2.74 2.43 2.32 1.72 1.25 1.32 1.31 1.28 1.25 1.32 1.45 1.22 1.31 1.03 0.81 0.78 1.10 1.08 0.72 0.87 0.82 1.39 1.58 1.76 1.64 1.49 1.13
4.41 5.69 5.42 3.61 2.81 2.45 2.18 2.07 1.93 1.91 1.68 1.76 2.00 2.27 2.55 2.56 2.77 2.46 2.31 1.73 1.36 1.21 1.39 1.18 1.09 0.83 1.33 1.62 1.40 0.68 0.54 0.53 0.91 0.96 0.89 0.98 1.22 1.57 1.86 1.75 1.58 1.81 1.42
6.29 5.33 5.45 4.91 3.63 2.85 3.03 3.22 3.19 3.13 2.75 2.86 3.53 3.53 3.51 2.88 3.08 2.70 1.98 1.50 1.55 1.52 1.23 1.04 1.47 1.07 1.52 1.64 1.38 0.92 0.90 1.02 1.14 1.30 1.20 1.07 1.13 1.15 1.69 1.44 1.80 1.89 1.78
5.63 6.10 5.51 4.80 4.89 4.32 4.33 4.30 4.14 4.16 4.20 3.81 4.02 3.47 3.36 3.09 2.78 2.72 2.86 2.26 2.10 2.36 1.90 1.61 1.45 1.35 1.35 1.52 1.84 1.32 1.10 1.29 1.38 1.29 1.30 1.13 1.18 1.23 1.41 1.52 2.40 2.71 2.82
7.93 6.89 6.89 6.17 5.89 6.30 5.62 5.18 5.30 5.06 5.08 4.87 4.71 4.51 4.53 4.60 4.96 4.69 4.65 3.24 2.65 2.42 1.96 1.69 1.53 1.46 1.38 1.49 1.28 1.07 1.09 1.11 1.32 1.70 2.17 2.51 2.45 2.32 2.19 2.20 2.46 2.39 2.14
3.56 4.18 5.29 6.42 5.48 5.15 5.35 5.86 6.32 5.78 5.04 5.84 6.82 7.13 6.84 5.59 4.54 3.72 3.05 2.64 2.39 2.20 1.85 1.86 1.72 1.38 1.14 0.92 0.89 1.07 1.15 1.18 1.35 1.59 1.70 1.86 1.91 1.82 1.74 1.87 1.73 1.49 1.60
2.39 2.32 2.58 3.18 3.14 3.28 3.25 3.71 4.89 6.53 6.56 6.76 7.95 7.61 6.85 5.82 4.69 3.58 3.19 2.72 2.35 1.92 1.61 1.48 1.34 1.12 1.09 1.00 1.04 1.09 1.14 1.47 1.63 1.49 1.57 1.44 1.24 1.23 1.19 1.32 1.50 1.41 1.28
1.48 1.49 1.54 2.03 2.51 2.76 3.24 3.11 2.94 3.55 4.59 5.67 6.69 6.97 6.41 5.77 5.55 5.29 4.29 3.94 3.69 3.61 3.30 2.60 2.17 1.78 1.51 1.26 1.13 1.15 1.24 1.32 1.40 1.37 1.47 1.63 1.58 1.45 1.27 1.21 1.41 1.49 1.13
1.13 1.31 1.51 1.68 1.72 1.96 2.49 2.76 3.31 3.73 3.92 3.95 4.64 4.60 4.26 4.14 4.47 4.78 5.14 5.29 4.92 4.22 3.22 2.35 2.01 1.85 1.87 1.91 2.01 1.94 1.73 1.75 1.50 1.58 1.69 1.65 1.49 1.41 1.28 1.12 1.15 1.07 0.79
0.93 0.92 1.16 1.13 1.10 1.62 2.10 2.00 1.86 2.33 2.60 2.55 2.39 2.26 2.19 2.04 2.16 2.23 2.98 3.54 3.64 3.23 2.11 2.11 2.07 2.02 2.04 2.05 2.02 1.83 1.86 2.07 2.26 2.19 1.95 1.77 1.74 1.72 1.69 1.38 1.27 1.28 1.14
1.19 1.38 1.48 1.28 1.32 1.28 1.69 1.84 1.70 1.79 1.41 1.32 1.55 1.52 1.55 1.90 1.95 2.20 2.64 2.53 2.24 2.34 2.17 1.65 1.74 1.79 1.90 1.95 1.89 1.63 1.44 1.64 2.09 2.41 2.36 2.16 2.08 1.89 1.79 1.55 1.39 1.43 1.53
1.83 1.28 1.22 1.56 1.80 1.81 1.75 1.67 1.39 1.16 1.20 1.13 1.06 1.30 1.24 1.23 1.48 1.93 2.35 1.85 1.87 1.94 2.32 2.64 2.54 2.08 1.69 1.85 2.25 2.35 2.22 2.15 2.45 2.39 2.13 2.08 1.93 1.92 1.70 1.62 1.82 2.24 2.71
1.71 2.01 1.60 2.05 3.43 3.81 3.65 3.02 2.58 2.31 1.94 1.83 1.59 1.80 1.77 1.79 1.61 1.79 2.27 2.54 2.71 2.44 2.22 2.41 2.68 2.90 3.18 2.62 2.72 2.75 2.39 2.32 2.38 2.94 3.53 3.97 4.63 5.29 5.06 4.41 4.07 4.13 3.98
1.44 1.47 1.38 1.30 1.44 1.67 2.44 2.95 2.86 2.69 2.53 2.59 2.64 2.86 2.90 3.02 2.87 3.03 3.50 4.03 3.86 3.73 3.59 3.71 4.31 4.35 4.07 4.22 4.12 3.95 4.02 4.16 4.24 4.41 4.58 4.58 4.31 3.95 3.93 3.58 3.26 3.08 2.90
1.40 1.26 1.13 1.21 1.11 1.08 0.90 1.09 1.62 1.56 1.36 1.34 1.40 1.72 1.85 1.42 1.46 1.63 1.92 2.24 2.56 2.60 2.67 2.66 2.37 2.70 2.76 2.80 2.88 2.92 3.01 2.97 2.84 2.81 2.71 2.81 2.73 2.42 2.29 2.38 2.60 2.55 2.32
0.97 1.09 1.06 0.96 0.83 0.96 0.94 0.93 0.90 1.01 1.32 1.31 1.02 0.89 0.94 0.77 0.76 0.80 0.74 0.78 0.89 0.97 1.08 1.35 1.22 1.24 1.32 1.60 1.61 1.73 1.62 1.63 1.67 1.93 2.29 2.58 2.70 2.46 2.11 2.21 2.34 2.34 1.83
0.93 0.99 1.06 0.98 0.91 0.77 0.64 0.60 0.69 0.74 0.63 0.62 0.56 0.57 0.54 0.49 0.52 0.56 0.54 0.55 0.54 0.55 0.60 0.65 0.71 0.71 0.75 0.76 0.82 0.94 0.97 0.90 0.91 0.84 1.06 1.40 1.46 1.78 1.95 1.87 1.78 1.33 1.24
0.90 0.95 0.90 0.95 1.04 1.04 1.10 0.82 0.69 0.68 0.62 0.54 0.50 0.46 0.44 0.39 0.37 0.37 0.38 0.36 0.30 0.30 0.31 0.34 0.32 0.33 0.44 0.51 0.51 0.52 0.72 0.91 0.87 0.81 0.69 0.68 0.70 0.79 1.09 1.30 1.56 1.58 1.45
1.52 1.23 1.01 0.85 0.80 1.07 1.52 1.51 1.45 1.58 1.43 1.25 1.01 0.83 0.69 0.71 0.62 0.44 0.36 0.28 0.29 0.24 0.20 0.22 0.24 0.27 0.27 0.29 0.34 0.48 0.53 0.46 0.41 0.42 0.31 0.27 0.35 0.44 0.66 0.83 1.08 1.41 1.64